Location: Newark
(7.0858°N, 171.3717°E)
Time: 01:22:19
(UTC+00:00)

Vanguard 3 - Pass Details

Date: 29 November 2020
Orbit: 508 x 3262 km, 33.3° (Epoch: 19 January)

Event Time Altitude Azimuth Distance (km) Brightness Sun altitude
Exits shadow 15:15:06 53° 70° (ENE) 2,182 9.2 -46.1°
Drops below altitude 10° 15:27:28 10° 113° (ESE) 5,348 11.9 -43.2°
Sets 15:32:36 0° 117° (ESE) 6,712 12.7 -42.1°
